Time,TemperatureF,DewpointF,PressureIn,WindDirection,WindDirectionDegrees,WindSpeedMPH,WindSpeedGustMPH,Humidity,HourlyPrecipIn,Conditions,Clouds,dailyrainin,SoftwareType,DateUTC
2013-04-15 00:02:00,70.0,46.0,29.62,SSW,192,5.0,-999.0,42,-99.99,,,-99.99,,2013-04-15 07:02:00,
2013-04-15 00:42:00,69.0,48.0,29.63,SSW,202,8.0,-999.0,48,-99.99,,,-99.99,,2013-04-15 07:42:00,
2013-04-15 00:52:00,69.0,48.0,29.63,SSW,195,9.0,-999.0,48,-99.99,,,-99.99,,2013-04-15 07:52:00,
2013-04-15 01:02:00,68.0,50.0,29.64,South,186,6.0,-999.0,52,-99.99,,,-99.99,,2013-04-15 08:02:00,
2013-04-15 01:12:00,68.0,50.0,29.64,South,186,6.0,-999.0,52,-99.99,,,-99.99,,2013-04-15 08:12:00,
2013-04-15 01:21:00,67.0,50.0,29.64,SW,217,3.0,-999.0,55,-99.99,,,-99.99,,2013-04-15 08:21:00,
2013-04-15 01:33:00,63.0,48.0,29.64,West,262,1.0,-999.0,58,-99.99,,,-99.99,,2013-04-15 08:33:00,
2013-04-15 01:42:00,63.0,48.0,29.64,West,262,1.0,-999.0,58,-99.99,,,-99.99,,2013-04-15 08:42:00,
2013-04-15 01:51:00,64.0,50.0,29.65,West,262,0.0,-999.0,60,-99.99,,,-99.99,,2013-04-15 08:51:00,
2013-04-15 02:02:00,62.0,48.0,29.65,WSW,248,0.0,-999.0,60,-99.99,,,-99.99,,2013-04-15 09:02:00,
2013-04-15 02:12:00,62.0,48.0,29.65,WSW,248,0.0,-999.0,60,-99.99,,,-99.99,,2013-04-15 09:12:00,
2013-04-15 02:22:00,61.0,48.0,29.65,WSW,248,0.0,-999.0,62,-99.99,,,-99.99,,2013-04-15 09:22:00,
2013-04-15 02:32:00,62.0,49.0,29.65,East,92,2.0,-999.0,62,-99.99,,,-99.99,,2013-04-15 09:32:00,
2013-04-15 02:42:00,62.0,49.0,29.65,East,92,2.0,-999.0,62,-99.99,,,-99.99,,2013-04-15 09:42:00,
2013-04-15 02:52:00,64.0,49.0,29.65,East,100,2.0,-999.0,59,-99.99,,,-99.99,,2013-04-15 09:52:00,
2013-04-15 03:02:00,60.0,48.0,29.65,SE,134,0.0,-999.0,65,-99.99,,,-99.99,,2013-04-15 10:02:00,
2013-04-15 03:12:00,60.0,48.0,29.65,SE,134,0.0,-999.0,65,-99.99,,,-99.99,,2013-04-15 10:12:00,
2013-04-15 03:22:00,61.0,49.0,29.65,SE,134,0.0,-999.0,65,-99.99,,,-99.99,,2013-04-15 10:22:00,
2013-04-15 03:33:00,61.0,49.0,29.65,SE,134,0.0,-999.0,65,-99.99,,,-99.99,,2013-04-15 10:33:00,
2013-04-15 03:42:00,61.0,49.0,29.65,SE,134,0.0,-999.0,65,-99.99,,,-99.99,,2013-04-15 10:42:00,
2013-04-15 03:52:00,61.0,49.0,29.65,ESE,116,0.0,-999.0,65,-99.99,,,-99.99,,2013-04-15 10:52:00,
2013-04-15 04:02:00,61.0,50.0,29.66,ESE,116,0.0,-999.0,68,-99.99,,,-99.99,,2013-04-15 11:02:00,
2013-04-15 04:12:00,61.0,50.0,29.66,ESE,116,0.0,-999.0,68,-99.99,,,-99.99,,2013-04-15 11:12:00,
2013-04-15 04:22:00,61.0,51.0,29.66,ESE,116,0.0,-999.0,70,-99.99,,,-99.99,,2013-04-15 11:22:00,
2013-04-15 04:32:00,62.0,52.0,29.67,ESE,111,2.0,-999.0,71,-99.99,,,-99.99,,2013-04-15 11:32:00,
2013-04-15 04:42:00,62.0,52.0,29.67,ESE,111,2.0,-999.0,71,-99.99,,,-99.99,,2013-04-15 11:42:00,
2013-04-15 04:52:00,60.0,50.0,29.67,ESE,111,0.0,-999.0,70,-99.99,,,-99.99,,2013-04-15 11:52:00,
2013-04-15 05:03:00,59.0,51.0,29.67,East,101,2.0,-999.0,74,-99.99,,,-99.99,,2013-04-15 12:03:00,
2013-04-15 05:12:00,59.0,51.0,29.67,East,101,2.0,-999.0,74,-99.99,,,-99.99,,2013-04-15 12:12:00,
2013-04-15 05:22:00,60.0,52.0,29.67,East,101,0.0,-999.0,74,-99.99,,,-99.99,,2013-04-15 12:22:00,
2013-04-15 05:33:00,59.0,50.0,29.68,ESE,117,0.0,-999.0,73,-99.99,,,-99.99,,2013-04-15 12:33:00,
2013-04-15 05:42:00,59.0,50.0,29.68,ESE,117,0.0,-999.0,73,-99.99,,,-99.99,,2013-04-15 12:42:00,
2013-04-15 05:52:00,58.0,50.0,29.68,ESE,115,1.0,-999.0,76,-99.99,,,-99.99,,2013-04-15 12:52:00,
2013-04-15 06:03:00,60.0,52.0,29.69,ESE,119,4.0,-999.0,76,-99.99,,,-99.99,,2013-04-15 13:03:00,
2013-04-15 06:12:00,60.0,52.0,29.69,ESE,119,4.0,-999.0,76,-99.99,,,-99.99,,2013-04-15 13:12:00,
2013-04-15 06:22:00,59.0,52.0,29.69,ESE,119,1.0,-999.0,77,-99.99,,,-99.99,,2013-04-15 13:22:00,
2013-04-15 06:32:00,58.0,51.0,29.70,ESE,110,2.0,-999.0,78,-99.99,,,-99.99,,2013-04-15 13:32:00,
2013-04-15 06:42:00,58.0,51.0,29.70,ESE,110,2.0,-999.0,78,-99.99,,,-99.99,,2013-04-15 13:42:00,
2013-04-15 06:52:00,58.0,50.0,29.71,ESE,110,0.0,-999.0,75,-99.99,,,-99.99,,2013-04-15 13:52:00,
2013-04-15 07:03:00,60.0,52.0,29.71,ESE,110,0.0,-999.0,76,-99.99,,,-99.99,,2013-04-15 14:03:00,
2013-04-15 07:12:00,60.0,52.0,29.71,ESE,110,0.0,-999.0,76,-99.99,,,-99.99,,2013-04-15 14:12:00,
2013-04-15 07:22:00,60.0,52.0,29.72,ESE,110,0.0,-999.0,74,-99.99,,,-99.99,,2013-04-15 14:22:00,
2013-04-15 07:32:00,62.0,54.0,29.72,ESE,110,0.0,-999.0,74,-99.99,,,-99.99,,2013-04-15 14:32:00,
2013-04-15 07:43:00,62.0,54.0,29.72,ESE,110,0.0,-999.0,74,-99.99,,,-99.99,,2013-04-15 14:43:00,
2013-04-15 07:52:00,63.0,54.0,29.73,ESE,111,0.0,-999.0,72,-99.99,,,-99.99,,2013-04-15 14:52:00,
2013-04-15 08:03:00,64.0,53.0,29.74,ESE,111,0.0,-999.0,68,-99.99,,,-99.99,,2013-04-15 15:03:00,
2013-04-15 08:12:00,64.0,53.0,29.74,ESE,111,0.0,-999.0,68,-99.99,,,-99.99,,2013-04-15 15:12:00,
2013-04-15 08:22:00,64.0,53.0,29.74,SE,138,0.0,-999.0,67,-99.99,,,-99.99,,2013-04-15 15:22:00,
2013-04-15 08:34:00,66.0,54.0,29.74,SSE,149,0.0,-999.0,65,-99.99,,,-99.99,,2013-04-15 15:34:00,
2013-04-15 08:43:00,66.0,54.0,29.74,SSE,149,0.0,-999.0,65,-99.99,,,-99.99,,2013-04-15 15:43:00,
2013-04-15 08:53:00,67.0,52.0,29.74,NW,306,0.0,-999.0,59,-99.99,,,-99.99,,2013-04-15 15:53:00,
2013-04-15 09:03:00,68.0,52.0,29.74,NW,324,3.0,-999.0,56,-99.99,,,-99.99,,2013-04-15 16:03:00,
2013-04-15 09:12:00,68.0,52.0,29.74,NW,324,3.0,-999.0,56,-99.99,,,-99.99,,2013-04-15 16:12:00,
2013-04-15 09:23:00,69.0,48.0,29.74,NW,308,6.0,-999.0,48,-99.99,,,-99.99,,2013-04-15 16:23:00,
2013-04-15 09:33:00,69.0,48.0,29.74,NW,309,4.0,-999.0,47,-99.99,,,-99.99,,2013-04-15 16:33:00,
2013-04-15 09:43:00,69.0,48.0,29.74,NW,309,4.0,-999.0,47,-99.99,,,-99.99,,2013-04-15 16:43:00,
2013-04-15 09:52:00,69.0,50.0,29.74,WNW,295,4.0,-999.0,50,-99.99,,,-99.99,,2013-04-15 16:52:00,
2013-04-15 10:03:00,70.0,51.0,29.74,NW,321,1.0,-999.0,51,-99.99,,,-99.99,,2013-04-15 17:03:00,
2013-04-15 10:13:00,70.0,51.0,29.74,NW,321,1.0,-999.0,51,-99.99,,,-99.99,,2013-04-15 17:13:00,
2013-04-15 10:21:00,71.0,52.0,29.74,NW,320,1.0,-999.0,51,-99.99,,,-99.99,,2013-04-15 17:21:00,
2013-04-15 10:32:00,71.0,52.0,29.74,WNW,293,1.0,-999.0,51,-99.99,,,-99.99,,2013-04-15 17:32:00,
2013-04-15 10:42:00,71.0,52.0,29.74,WNW,293,1.0,-999.0,51,-99.99,,,-99.99,,2013-04-15 17:42:00,
2013-04-15 10:52:00,72.0,52.0,29.74,WNW,300,3.0,-999.0,50,-99.99,,,-99.99,,2013-04-15 17:52:00,
2013-04-15 11:02:00,73.0,53.0,29.73,WNW,286,2.0,-999.0,49,-99.99,,,-99.99,,2013-04-15 18:02:00,
2013-04-15 11:12:00,73.0,53.0,29.73,WNW,286,2.0,-999.0,49,-99.99,,,-99.99,,2013-04-15 18:12:00,
2013-04-15 11:22:00,74.0,51.0,29.73,SSW,203,1.0,-999.0,45,-99.99,,,-99.99,,2013-04-15 18:22:00,
2013-04-15 11:32:00,76.0,52.0,29.73,NNW,327,1.0,-999.0,44,-99.99,,,-99.99,,2013-04-15 18:32:00,
2013-04-15 11:42:00,76.0,52.0,29.73,NNW,327,1.0,-999.0,44,-99.99,,,-99.99,,2013-04-15 18:42:00,
2013-04-15 11:52:00,76.0,52.0,29.73,NW,311,1.0,-999.0,44,-99.99,,,-99.99,,2013-04-15 18:52:00,
2013-04-15 12:11:00,77.0,50.0,29.72,SW,236,2.0,-999.0,39,-99.99,,,-99.99,,2013-04-15 19:11:00,
2013-04-15 12:21:00,78.0,51.0,29.71,WSW,238,1.0,-999.0,39,-99.99,,,-99.99,,2013-04-15 19:21:00,
2013-04-15 12:33:00,81.0,50.0,29.70,South,189,4.0,-999.0,34,-99.99,,,-99.99,,2013-04-15 19:33:00,
2013-04-15 13:02:00,82.0,47.0,29.70,SW,225,6.0,-999.0,30,-99.99,,,-99.99,,2013-04-15 20:02:00,
2013-04-15 13:11:00,82.0,47.0,29.70,SW,225,6.0,-999.0,30,-99.99,,,-99.99,,2013-04-15 20:11:00,
2013-04-15 13:22:00,83.0,48.0,29.69,West,269,7.0,-999.0,30,-99.99,,,-99.99,,2013-04-15 20:22:00,
2013-04-15 13:32:00,83.0,47.0,29.69,WSW,244,9.0,-999.0,28,-99.99,,,-99.99,,2013-04-15 20:32:00,
2013-04-15 13:42:00,83.0,47.0,29.69,WSW,244,9.0,-999.0,28,-99.99,,,-99.99,,2013-04-15 20:42:00,
2013-04-15 13:52:00,84.0,48.0,29.68,WSW,243,8.0,-999.0,29,-99.99,,,-99.99,,2013-04-15 20:52:00,
2013-04-15 14:02:00,85.0,50.0,29.68,SSW,204,8.0,-999.0,30,-99.99,,,-99.99,,2013-04-15 21:02:00,
2013-04-15 14:11:00,85.0,50.0,29.68,SSW,204,8.0,-999.0,30,-99.99,,,-99.99,,2013-04-15 21:11:00,
2013-04-15 14:22:00,85.0,50.0,29.67,SW,223,5.0,-999.0,30,-99.99,,,-99.99,,2013-04-15 21:22:00,
2013-04-15 14:32:00,85.0,52.0,29.67,South,180,8.0,-999.0,32,-99.99,,,-99.99,,2013-04-15 21:32:00,
2013-04-15 14:42:00,85.0,52.0,29.67,South,180,8.0,-999.0,32,-99.99,,,-99.99,,2013-04-15 21:42:00,
2013-04-15 14:53:00,85.0,49.0,29.66,SSW,194,8.0,-999.0,29,-99.99,,,-99.99,,2013-04-15 21:53:00,
2013-04-15 15:02:00,85.0,49.0,29.66,South,182,8.0,-999.0,29,-99.99,,,-99.99,,2013-04-15 22:02:00,
2013-04-15 15:12:00,85.0,49.0,29.66,South,182,8.0,-999.0,29,-99.99,,,-99.99,,2013-04-15 22:12:00,
2013-04-15 15:22:00,85.0,50.0,29.65,SSW,209,7.0,-999.0,30,-99.99,,,-99.99,,2013-04-15 22:22:00,
2013-04-15 15:32:00,85.0,50.0,29.65,SSW,193,9.0,-999.0,30,-99.99,,,-99.99,,2013-04-15 22:32:00,
2013-04-15 15:42:00,85.0,50.0,29.65,SSW,193,9.0,-999.0,30,-99.99,,,-99.99,,2013-04-15 22:42:00,
2013-04-15 15:52:00,85.0,49.0,29.64,WSW,257,7.0,-999.0,29,-99.99,,,-99.99,,2013-04-15 22:52:00,
2013-04-15 16:02:00,85.0,51.0,29.64,West,272,9.0,-999.0,31,-99.99,,,-99.99,,2013-04-15 23:02:00,
2013-04-15 16:12:00,85.0,51.0,29.64,West,272,9.0,-999.0,31,-99.99,,,-99.99,,2013-04-15 23:12:00,
2013-04-15 16:22:00,85.0,52.0,29.63,West,260,9.0,-999.0,32,-99.99,,,-99.99,,2013-04-15 23:22:00,
2013-04-15 16:32:00,84.0,51.0,29.63,WSW,254,6.0,-999.0,32,-99.99,,,-99.99,,2013-04-15 23:32:00,
2013-04-15 16:41:00,84.0,51.0,29.63,WSW,254,6.0,-999.0,32,-99.99,,,-99.99,,2013-04-15 23:41:00,
2013-04-15 16:52:00,84.0,53.0,29.63,West,272,8.0,-999.0,35,-99.99,,,-99.99,,2013-04-15 23:52:00,
2013-04-15 17:02:00,83.0,52.0,29.62,SW,225,7.0,-999.0,34,-99.99,,,-99.99,,2013-04-16 00:02:00,
2013-04-15 17:11:00,83.0,52.0,29.62,SW,225,7.0,-999.0,34,-99.99,,,-99.99,,2013-04-16 00:11:00,
2013-04-15 17:22:00,83.0,52.0,29.62,SW,223,7.0,-999.0,34,-99.99,,,-99.99,,2013-04-16 00:22:00,
2013-04-15 17:31:00,82.0,52.0,29.62,South,178,8.0,-999.0,36,-99.99,,,-99.99,,2013-04-16 00:31:00,
2013-04-15 17:42:00,82.0,52.0,29.62,South,178,8.0,-999.0,36,-99.99,,,-99.99,,2013-04-16 00:42:00,
2013-04-15 17:52:00,81.0,50.0,29.62,WSW,244,8.0,-999.0,34,-99.99,,,-99.99,,2013-04-16 00:52:00,
2013-04-15 18:02:00,81.0,50.0,29.62,SSW,207,7.0,-999.0,34,-99.99,,,-99.99,,2013-04-16 01:02:00,
2013-04-15 18:11:00,81.0,50.0,29.62,SSW,207,7.0,-999.0,34,-99.99,,,-99.99,,2013-04-16 01:11:00,
2013-04-15 18:22:00,79.0,50.0,29.63,SSW,209,7.0,-999.0,37,-99.99,,,-99.99,,2013-04-16 01:22:00,
2013-04-15 18:32:00,77.0,49.0,29.63,SSW,192,10.0,-999.0,37,-99.99,,,-99.99,,2013-04-16 01:32:00,
2013-04-15 18:42:00,77.0,49.0,29.63,SSW,192,10.0,-999.0,37,-99.99,,,-99.99,,2013-04-16 01:42:00,
2013-04-15 18:52:00,77.0,49.0,29.63,South,172,9.0,-999.0,38,-99.99,,,-99.99,,2013-04-16 01:52:00,
2013-04-15 19:02:00,75.0,48.0,29.64,South,190,9.0,-999.0,39,-99.99,,,-99.99,,2013-04-16 02:02:00,
2013-04-15 19:11:00,75.0,48.0,29.64,South,190,9.0,-999.0,39,-99.99,,,-99.99,,2013-04-16 02:11:00,
2013-04-15 19:22:00,74.0,47.0,29.64,SSW,192,9.0,-999.0,39,-99.99,,,-99.99,,2013-04-16 02:22:00,
2013-04-15 19:32:00,73.0,49.0,29.65,South,190,8.0,-999.0,42,-99.99,,,-99.99,,2013-04-16 02:32:00,
2013-04-15 19:42:00,73.0,49.0,29.65,South,190,8.0,-999.0,42,-99.99,,,-99.99,,2013-04-16 02:42:00,
2013-04-15 19:51:00,72.0,49.0,29.65,SSW,203,8.0,-999.0,44,-99.99,,,-99.99,,2013-04-16 02:51:00,
2013-04-15 20:02:00,72.0,49.0,29.66,SW,219,7.0,-999.0,44,-99.99,,,-99.99,,2013-04-16 03:02:00,
2013-04-15 20:11:00,72.0,49.0,29.66,SW,219,7.0,-999.0,44,-99.99,,,-99.99,,2013-04-16 03:11:00,
2013-04-15 20:22:00,73.0,47.0,29.67,West,276,8.0,-999.0,40,-99.99,,,-99.99,,2013-04-16 03:22:00,
2013-04-15 20:33:00,73.0,47.0,29.67,WSW,252,9.0,-999.0,39,-99.99,,,-99.99,,2013-04-16 03:33:00,
2013-04-15 20:43:00,73.0,47.0,29.67,WSW,252,9.0,-999.0,39,-99.99,,,-99.99,,2013-04-16 03:43:00,
2013-04-15 20:52:00,72.0,47.0,29.69,West,261,7.0,-999.0,41,-99.99,,,-99.99,,2013-04-16 03:52:00,
2013-04-15 21:02:00,71.0,47.0,29.70,SW,236,3.0,-999.0,42,-99.99,,,-99.99,,2013-04-16 04:02:00,
2013-04-15 21:12:00,71.0,47.0,29.70,SW,236,3.0,-999.0,42,-99.99,,,-99.99,,2013-04-16 04:12:00,
2013-04-15 21:23:00,69.0,46.0,29.70,WSW,254,1.0,-999.0,43,-99.99,,,-99.99,,2013-04-16 04:23:00,
2013-04-15 21:32:00,69.0,42.0,29.71,West,281,4.0,-999.0,38,-99.99,,,-99.99,,2013-04-16 04:32:00,
2013-04-15 21:42:00,69.0,42.0,29.71,West,281,4.0,-999.0,38,-99.99,,,-99.99,,2013-04-16 04:42:00,
2013-04-15 21:52:00,68.0,41.0,29.71,West,273,5.0,-999.0,38,-99.99,,,-99.99,,2013-04-16 04:52:00,
2013-04-15 22:02:00,66.0,41.0,29.71,WNW,284,7.0,-999.0,40,-99.99,,,-99.99,,2013-04-16 05:02:00,
2013-04-15 22:12:00,66.0,41.0,29.71,WNW,284,7.0,-999.0,40,-99.99,,,-99.99,,2013-04-16 05:12:00,
2013-04-15 22:22:00,66.0,42.0,29.71,WNW,286,9.0,-999.0,41,-99.99,,,-99.99,,2013-04-16 05:22:00,
2013-04-15 22:32:00,65.0,41.0,29.72,WNW,284,8.0,-999.0,41,-99.99,,,-99.99,,2013-04-16 05:32:00,
2013-04-15 22:42:00,65.0,41.0,29.72,WNW,284,8.0,-999.0,41,-99.99,,,-99.99,,2013-04-16 05:42:00,
2013-04-15 22:51:00,65.0,41.0,29.72,West,276,6.0,-999.0,41,-99.99,,,-99.99,,2013-04-16 05:51:00,
2013-04-15 23:02:00,65.0,41.0,29.72,West,268,7.0,-999.0,41,-99.99,,,-99.99,,2013-04-16 06:02:00,
2013-04-15 23:11:00,65.0,41.0,29.72,West,268,7.0,-999.0,41,-99.99,,,-99.99,,2013-04-16 06:11:00,
2013-04-15 23:21:00,63.0,40.0,29.72,West,277,5.0,-999.0,43,-99.99,,,-99.99,,2013-04-16 06:21:00,
2013-04-15 23:32:00,63.0,41.0,29.72,West,271,4.0,-999.0,44,-99.99,,,-99.99,,2013-04-16 06:32:00,
2013-04-15 23:41:00,63.0,41.0,29.72,West,271,4.0,-999.0,44,-99.99,,,-99.99,,2013-04-16 06:41:00,
2013-04-15 23:51:00,62.0,39.0,29.72,WNW,283,4.0,-999.0,43,-99.99,,,-99.99,,2013-04-16 06:51:00,